Location: Amherst
(42.3800°N, 72.5240°W)
Time: 20:55:15
(UTC-05:00)

ISS - Visible Passes

Search period start: 23 November 2017 00:00
Search period end: 03 December 2017 00:00
Orbit: 402 x 407 km, 51.6° (Epoch: 24 November)

Date Brightness Start Highest point End Pass type
(mag) Time Alt. Az. Time Alt. Az. Time Alt. Az.
25 Nov -1.4 17:52:03 10° SSE 17:52:56 13° SSE 17:52:56 13° SSE visible
26 Nov -1.7 18:34:20 10° SW 18:35:47 24° SW 18:35:47 24° SW visible
27 Nov -2.8 17:42:22 10° SSW 17:45:18 31° SE 17:45:51 29° ESE visible
28 Nov -1.8 16:50:55 10° S 16:53:08 17° SE 16:55:20 10° E visible
28 Nov -2.7 18:26:03 10° WSW 18:28:29 43° W 18:28:29 43° W visible
29 Nov -3.9 17:33:39 10° SW 17:36:55 75° SE 17:38:23 30° ENE visible
29 Nov -0.3 19:10:57 10° WNW 19:11:02 10° WNW 19:11:02 10° WNW visible
30 Nov -2.4 18:18:07 10° W 18:20:52 31° NW 18:20:52 31° NW visible
01 Dec -3.2 17:25:25 10° WSW 17:28:37 50° NNW 17:30:37 20° NE visible
02 Dec -1.9 18:10:23 10° WNW 18:12:58 22° NNW 18:12:58 22° NNW visible
